Regional Weather Roundup
Issued by NWS

Home | Current Version | Previous Version | Text Only | Print | Product List | Glossary On
Versions: 1 2 3 4 5 6 7 8 9 10 11 12 13 14 15 16 17 18 19 20 21 22 23 24 25 26 27 28
000
ASUS45 KCYS 240610
RWRWY

WYOMING REGIONAL WEATHER ROUNDUP
NATIONAL WEATHER SERVICE CHEYENNE WY
1200 AM MDT TUE OCT 24 2017

NOTE:  "FAIR" INDICATES FEW OR NO CLOUDS BELOW 12,000 FEET
WITH NO SIGNIFICANT WEATHER AND/OR OBSTRUCTIONS TO VISIBILITY.

WYZ001-240700-
YELLOWSTONE NATIONAL PARK

CITY           SKY/WX    TMP DP  RH WIND       PRES   REMARKS
LK YELLOWSTONE   N/A     23  20  88 CALM      30.71S
6HR MIN TEMP:  23; 6HR MAX TEMP:  36;

W YELLOWSTONE  NOT AVBL

$$
WYZ002>013-054>058-071-098>099-240700-
NORTHERN WYOMING

CITY           SKY/WX    TMP DP  RH WIND       PRES   REMARKS
JACKSON        FAIR      26  22  84 NW5       30.70S WCI  20
CODY           FAIR      31  19  61 CALM      30.59F
GREYBULL       FAIR      35  18  49 E6        30.56S WCI  30
6HR MIN TEMP:  33; 6HR MAX TEMP:  54;

WORLAND        FAIR      34  20  56 SW10      30.57F WCI  26
6HR MIN TEMP:  32; 6HR MAX TEMP:  52;

SHERIDAN       FAIR      36  21  54 CALM      30.56S
6HR MIN TEMP:  36; 6HR MAX TEMP:  49;

BUFFALO        FAIR      40  19  43 N9        30.57R WCI  34
6HR MIN TEMP:  37; 6HR MAX TEMP:  47;

GILLETTE       FAIR      34  19  54 W14       30.53F WCI  25
6HR MIN TEMP:  32; 6HR MAX TEMP:  48;

HULETT         FAIR      41  21  45 NW7       30.52S
NEWCASTLE      FAIR      37  18  44 NW10      30.51S WCI  30

$$
WYZ014>020-022>026-101>103-240700-
CENTRAL WYOMING

CITY           SKY/WX    TMP DP  RH WIND       PRES   REMARKS
BIG PINEY      FAIR      27  16  63 N8        30.66S WCI  19
6HR MIN TEMP:  27; 6HR MAX TEMP:  47;

PINEDALE       FAIR      36  19  51 NW15G24   30.63S WCI  26
DUBOIS         FAIR      36  19  51 W20G26    30.63R WCI  25
LANDER         FAIR      34  20  56 SW8       30.60F WCI  27
6HR MIN TEMP:  33; 6HR MAX TEMP:  49;

RIVERTON       FAIR      38  18  44 SW3       30.60F
6HR MIN TEMP:  35; 6HR MAX TEMP:  48;

CASPER         FAIR      27  17  66 SW8       30.59F WCI  19
6HR MIN TEMP:  25; 6HR MAX TEMP:  45;

DOUGLAS        FAIR      32  20  61 NW9       30.57F WCI  24
6HR MIN TEMP:  32; 6HR MAX TEMP:  48;


$$
WYZ021-027>030-104>119-240700-
SOUTHERN WYOMING

CITY           SKY/WX    TMP DP  RH WIND       PRES   REMARKS
EVANSTON       FAIR      40  23  50 CALM      30.71R
6HR MIN TEMP:  38; 6HR MAX TEMP:  50;

KEMMERER       FAIR      34  23  64 W13       30.69S WCI  25
FORT BRIDGER   FAIR      38  23  54 W14       30.71R WCI  30
ROCK SPRINGS   FAIR      34  14  43 S6        30.66R WCI  29
6HR MIN TEMP:  33; 6HR MAX TEMP:  51;

DIXON          FAIR      29  22  75 CALM      30.64S
RAWLINS        FAIR      26  15  63 NW7       30.62F WCI  18
6HR MIN TEMP:  25; 6HR MAX TEMP:  46;

SARATOGA       FAIR      30  18  59 CALM      30.63S
LARAMIE        FAIR      30  13  49 W15       30.59S WCI  19
6HR MIN TEMP:  27; 6HR MAX TEMP:  43;

CHEYENNE       FAIR      37  17  44 NW12G21   30.56S WCI  29
6HR MIN TEMP:  36; 6HR MAX TEMP:  48;

TORRINGTON     FAIR      37  18  46 NW12      30.53R WCI  29
6HR MIN TEMP:  36; 6HR MAX TEMP:  52;

PINE BLUFFS    FAIR      36  21  55 MISG      30.54S

$$




USA.gov is the U.S. government's official web portal to all federal, state and local government web resources and services.